This is the latest recevied weather packets stored in our database for station/object KC3ELT-10. If no packets are shown the sender has not sent any weather packets the latest 10 day(s).
| Time | Temp. | Humidity | Pressure | Rain* | Wind** | Luminosity | Snow |
|---|---|---|---|---|---|---|---|
| 1777969079 | 14.44° C | 68% | 1003.6 hPa | 0 mm | 0.45 m/s, 169° | - | - |
| 1777968779 | 14.44° C | 68% | 1003.7 hPa | 0 mm | 0.89 m/s, 217° | - | - |
| 1777968479 | 14.44° C | 68% | 1003.7 hPa | 0 mm | 1.79 m/s, 231° | - | - |
| 1777968179 | 14.44° C | 68% | 1003.7 hPa | 0 mm | 0.89 m/s, 201° | - | - |
| 1777967879 | 14.44° C | 68% | 1003.6 hPa | 0 mm | 2.24 m/s, 194° | - | - |
| 1777967579 | 13.89° C | 68% | 1003.6 hPa | 0 mm | 1.79 m/s, 194° | - | - |
| 1777967279 | 13.89° C | 68% | 1003.6 hPa | 0 mm | 0.89 m/s, 185° | - | - |
| 1777966979 | 13.89° C | 68% | 1003.9 hPa | 0 mm | 1.79 m/s, 136° | - | - |
| 1777966679 | 13.89° C | 67% | 1003.9 hPa | 0 mm | 2.24 m/s, 179° | - | - |
| 1777966379 | 13.89° C | 67% | 1003.9 hPa | 0 mm | 1.79 m/s, 196° | - | - |
| 1777966079 | 13.89° C | 67% | 1003.7 hPa | 0 mm | 0.89 m/s, 191° | - | - |
| 1777965779 | 14.44° C | 66% | 1003.7 hPa | 0 mm | 0.89 m/s, 188° | - | - |
| 1777965479 | 14.44° C | 66% | 1003.7 hPa | 0 mm | 2.68 m/s, 195° | - | - |
| 1777965179 | 14.44° C | 66% | 1003.7 hPa | 0 mm | 1.34 m/s, 205° | - | - |
| 1777964879 | 14.44° C | 65% | 1003.7 hPa | 0 mm | 1.34 m/s, 141° | - | - |
| 1777964579 | 14.44° C | 65% | 1003.7 hPa | 0 mm | 2.68 m/s, 259° | - | - |
| 1777964279 | 14.44° C | 65% | 1003.7 hPa | 0 mm | 0.45 m/s, 194° | - | - |
| 1777963979 | 14.44° C | 65% | 1003.7 hPa | 0 mm | 2.68 m/s, 188° | - | - |
| 1777963679 | 13.89° C | 64% | 1003.7 hPa | 0 mm | 1.34 m/s, 195° | - | - |
| 1777963379 | 14.44° C | 64% | 1003.8 hPa | 0 mm | 0.45 m/s, 192° | - | - |
| 1777963079 | 14.44° C | 63% | 1003.8 hPa | 0 mm | 0.89 m/s, 226° | - | - |
| 1777962779 | 14.44° C | 63% | 1003.8 hPa | 0 mm | 1.34 m/s, 200° | - | - |
| 1777962479 | 14.44° C | 63% | 1003.9 hPa | 0 mm | 0.89 m/s, 205° | - | - |
| 1777962179 | 14.44° C | 63% | 1003.9 hPa | 0 mm | 0.89 m/s, 204° | - | - |
| 1777961879 | 14.44° C | 62% | 1003.9 hPa | 0 mm | 1.34 m/s, 217° | - | - |
* Rain latest hour (hover to see other rain measurements)
** Current wind speed in m/s (hover to see current wind gust speed)